When you browse on this site, cookies collect data to enhance your experience and personalize the content and advertising you see.
Visit our Privacy Policy to learn more. By continuing to use the site, you agree to this use of cookies and data.
  • In Hungary
  • List of Countries
  • For 7 days
  • Water Temperature
  • Satellite Maps
  • Weather Map
  • News
  • Weather Widgets
  • user-avatar
    Login

    Hourly Weather Sant Cugat del Valles

    Today, 17 November, Saturday

    Time Temperature Precipitation Wind Pressure Humidity
    00:00 +14°C° 0.1 mm 4 mps 753 mmHg 89%
    01:00 +14°C° 0.1 mm 4 mps 753 mmHg 88%
    02:00 +14°C° 0.1 mm 4 mps 753 mmHg 87%
    03:00 +14°C° 0.1 mm 4 mps 753 mmHg 86%
    04:00 +14°C° 0 mm 4 mps 753 mmHg 85%
    05:00 +14°C° 0 mm 4 mps 752 mmHg 84%
    06:00 +14°C° 0 mm 3 mps 752 mmHg 83%
    07:00 +14°C° 0 mm 3 mps 752 mmHg 82%
    08:00 +14°C° 0 mm 3 mps 752 mmHg 80%
    09:00 +14°C° 0 mm 3 mps 752 mmHg 79%
    10:00 +14°C° 0.1 mm 4 mps 752 mmHg 77%
    11:00 +15°C° 0.1 mm 4 mps 751 mmHg 76%
    12:00 +15°C° 0.1 mm 4 mps 751 mmHg 75%
    13:00 +14°C° 0.1 mm 4 mps 751 mmHg 77%
    14:00 +14°C° 0.1 mm 4 mps 750 mmHg 79%
    15:00 +14°C° 0.1 mm 5 mps 750 mmHg 81%
    16:00 +13°C° 0.5 mm 5 mps 750 mmHg 82%
    17:00 +13°C° 0.5 mm 5 mps 750 mmHg 84%
    18:00 +13°C° 0.5 mm 5 mps 750 mmHg 85%
    19:00 +12°C° 0.7 mm 5 mps 750 mmHg 85%
    20:00 +12°C° 0.7 mm 5 mps 750 mmHg 85%
    21:00 +12°C° 0.7 mm 5 mps 750 mmHg 86%
    22:00 +12°C° 0.7 mm 5 mps 750 mmHg 86%
    23:00 +12°C° 0.7 mm 5 mps 749 mmHg 86%

    Tomorrow, 18 November, Sunday

    Time Temperature Precipitation Wind Pressure Humidity
    00:00 +12°C° 0.7 mm 5 mps 749 mmHg 87%
    01:00 +12°C° 0.9 mm 5 mps 749 mmHg 87%
    02:00 +10°C° 0.9 mm 5 mps 748 mmHg 87%
    03:00 +10°C° 0.9 mm 5 mps 748 mmHg 88%
    04:00 +10°C° 0.9 mm 5 mps 748 mmHg 88%
    05:00 +10°C° 0.9 mm 5 mps 748 mmHg 88%
    06:00 +10°C° 0.9 mm 5 mps 748 mmHg 88%
    07:00 +10°C° 1 mm 5 mps 748 mmHg 87%
    08:00 +10°C° 1 mm 5 mps 748 mmHg 87%
    09:00 +10°C° 1 mm 5 mps 748 mmHg 86%
    10:00 +12°C° 1 mm 5 mps 748 mmHg 86%
    11:00 +11°C° 1 mm 6 mps 748 mmHg 86%
    12:00 +11°C° 1 mm 6 mps 748 mmHg 86%
    13:00 +11°C° 0.9 mm 6 mps 748 mmHg 86%
    14:00 +11°C° 0.9 mm 6 mps 747 mmHg 86%
    15:00 +11°C° 0.9 mm 6 mps 747 mmHg 85%
    16:00 +11°C° 0.7 mm 6 mps 747 mmHg 86%
    17:00 +11°C° 0.7 mm 6 mps 747 mmHg 87%
    18:00 +11°C° 0.7 mm 7 mps 747 mmHg 87%
    19:00 +11°C° 0.7 mm 7 mps 747 mmHg 87%
    20:00 +11°C° 0.7 mm 7 mps 747 mmHg 87%
    21:00 +11°C° 0.7 mm 7 mps 747 mmHg 87%
    22:00 +11°C° 0.5 mm 7 mps 747 mmHg 87%
    23:00 +11°C° 0.5 mm 7 mps 746 mmHg 87%

    Day after tomorrow, 19 November, Monday

    Time Temperature Precipitation Wind Pressure Humidity
    00:00 +11°C° 0.5 mm 7 mps 746 mmHg 87%
    01:00 +11°C° 0.4 mm 7 mps 746 mmHg 87%
    02:00 +11°C° 0.4 mm 7 mps 745 mmHg 87%
    03:00 +11°C° 0.4 mm 7 mps 745 mmHg 87%
    04:00 +11°C° 0.1 mm 6 mps 744 mmHg 87%
    05:00 +11°C° 0.1 mm 6 mps 744 mmHg 87%
    06:00 +10°C° 0.1 mm 6 mps 744 mmHg 87%
    07:00 +11°C° 0 mm 6 mps 744 mmHg 84%
    08:00 +11°C° 0 mm 7 mps 744 mmHg 82%
    09:00 +12°C° 0 mm 7 mps 743 mmHg 79%
    10:00 +12°C° 0 mm 7 mps 743 mmHg 75%
    11:00 +14°C° 0 mm 7 mps 743 mmHg 71%
    12:00 +15°C° 0 mm 7 mps 742 mmHg 67%
    13:00 +14°C° 0 mm 7 mps 742 mmHg 68%
    14:00 +14°C° 0 mm 7 mps 741 mmHg 68%
    15:00 +14°C° 0 mm 7 mps 741 mmHg 69%
    16:00 +12°C° 0 mm 7 mps 740 mmHg 72%
    17:00 +11°C° 0 mm 7 mps 740 mmHg 75%
    18:00 +10°C° 0 mm 6 mps 740 mmHg 79%
    19:00 +10°C° 0 mm 6 mps 741 mmHg 79%
    20:00 +10°C° 0 mm 6 mps 741 mmHg 79%
    21:00 +9°C° 0 mm 5 mps 741 mmHg 80%
    22:00 +9°C° 0 mm 5 mps 741 mmHg 79%
    23:00 +9°C° 0 mm 5 mps 740 mmHg 78%

    20 November, Tuesday

    Time Temperature Precipitation Wind Pressure Humidity
    00:00 +10°C° 0 mm 4 mps 740 mmHg 77%
    01:00 +10°C° 0 mm 4 mps 740 mmHg 77%
    02:00 +10°C° 0 mm 4 mps 740 mmHg 76%
    03:00 +10°C° 0 mm 3 mps 740 mmHg 76%
    04:00 +10°C° 0 mm 3 mps 740 mmHg 77%
    05:00 +10°C° 0 mm 3 mps 740 mmHg 78%
    06:00 +10°C° 0 mm 3 mps 739 mmHg 79%
    07:00 +10°C° 0.1 mm 3 mps 740 mmHg 79%
    08:00 +10°C° 0.1 mm 3 mps 740 mmHg 79%
    09:00 +10°C° 0.1 mm 3 mps 740 mmHg 79%
    10:00 +11°C° 0.1 mm 3 mps 740 mmHg 79%
    11:00 +11°C° 0.1 mm 4 mps 740 mmHg 78%
    12:00 +11°C° 0.1 mm 4 mps 740 mmHg 77%
    13:00 +11°C° 0.1 mm 4 mps 740 mmHg 75%
    14:00 +10°C° 0.1 mm 5 mps 740 mmHg 73%
    15:00 +12°C° 0.1 mm 5 mps 740 mmHg 71%
    16:00 +10°C° 0.1 mm 5 mps 740 mmHg 73%
    17:00 +9°C° 0.1 mm 5 mps 741 mmHg 75%
    18:00 +8°C° 0.1 mm 5 mps 741 mmHg 76%
    19:00 +8°C° 0.2 mm 5 mps 742 mmHg 77%
    20:00 +8°C° 0.2 mm 5 mps 742 mmHg 78%
    21:00 +7°C° 0.2 mm 5 mps 743 mmHg 80%
    22:00 +7°C° 0.3 mm 5 mps 743 mmHg 80%
    23:00 +7°C° 0.3 mm 5 mps 743 mmHg 80%

    21 November, Wednesday

    Time Temperature Precipitation Wind Pressure Humidity
    00:00 +7°C° 0.3 mm 5 mps 743 mmHg 81%
    01:00 +6°C° 0.2 mm 5 mps 743 mmHg 81%
    02:00 +6°C° 0.2 mm 5 mps 743 mmHg 80%
    03:00 +6°C° 0.2 mm 4 mps 743 mmHg 80%
    04:00 +5°C° 0.2 mm 4 mps 744 mmHg 79%
    05:00 +5°C° 0.2 mm 4 mps 744 mmHg 78%
    06:00 +5°C° 0.2 mm 3 mps 745 mmHg 77%
    07:00 +5°C° 0.1 mm 3 mps 745 mmHg 74%
    08:00 +5°C° 0.1 mm 3 mps 746 mmHg 71%
    09:00 +7°C° 0.1 mm 3 mps 746 mmHg 67%
    10:00 +7°C° 0 mm 3 mps 746 mmHg 64%
    11:00 +8°C° 0 mm 3 mps 746 mmHg 60%
    12:00 +9°C° 0 mm 3 mps 747 mmHg 56%
    13:00 +9°C° 0 mm 3 mps 747 mmHg 55%
    14:00 +9°C° 0 mm 3 mps 747 mmHg 55%
    15:00 +9°C° 0 mm 3 mps 747 mmHg 55%
    16:00 +8°C° 0 mm 2 mps 747 mmHg 58%
    17:00 +7°C° 0 mm 2 mps 748 mmHg 61%
    18:00 +6°C° 0 mm 2 mps 748 mmHg 64%
    19:00 +6°C° 0 mm 2 mps 749 mmHg 65%
    20:00 +6°C° 0 mm 2 mps 749 mmHg 66%
    21:00 +5°C° 0 mm 2 mps 749 mmHg 67%
    22:00 +5°C° 0 mm 2 mps 749 mmHg 68%
    23:00 +5°C° 0 mm 2 mps 749 mmHg 69%

    22 November, Thursday

    Time Temperature Precipitation Wind Pressure Humidity
    00:00 +5°C° 0 mm 2 mps 750 mmHg 70%
    01:00 +5°C° 0 mm 2 mps 750 mmHg 70%
    02:00 +5°C° 0 mm 2 mps 750 mmHg 70%
    03:00 +4°C° 0 mm 2 mps 750 mmHg 70%
    04:00 +5°C° 0 mm 2 mps 750 mmHg 68%
    05:00 +5°C° 0 mm 2 mps 750 mmHg 67%
    06:00 +5°C° 0 mm 2 mps 751 mmHg 66%
    07:00 +6°C° 0 mm 2 mps 751 mmHg 62%
    08:00 +8°C° 0 mm 1 mps 751 mmHg 58%
    09:00 +9°C° 0 mm 1 mps 752 mmHg 55%
    10:00 +10°C° 0 mm 1 mps 751 mmHg 52%
    11:00 +11°C° 0 mm 1 mps 751 mmHg 48%
    12:00 +12°C° 0 mm 1 mps 751 mmHg 45%
    13:00 +12°C° 0 mm 1 mps 751 mmHg 46%
    14:00 +12°C° 0 mm 1 mps 751 mmHg 48%
    15:00 +12°C° 0 mm 1 mps 751 mmHg 49%
    16:00 +10°C° 0 mm 2 mps 751 mmHg 54%
    17:00 +9°C° 0 mm 2 mps 752 mmHg 58%
    18:00 +7°C° 0 mm 2 mps 752 mmHg 63%
    19:00 +7°C° 0 mm 2 mps 752 mmHg 63%
    20:00 +7°C° 0 mm 2 mps 753 mmHg 64%
    21:00 +6°C° 0 mm 2 mps 753 mmHg 65%
    22:00 +6°C° 0 mm 2 mps 753 mmHg 64%
    23:00 +6°C° 0 mm 2 mps 753 mmHg 63%
    Show more